Time,TemperatureF,DewpointF,PressureIn,WindDirection,WindDirectionDegrees,WindSpeedMPH,WindSpeedGustMPH,Humidity,HourlyPrecipIn,Conditions,Clouds,dailyrainin,SolarRadiationWatts/m^2,SoftwareType,DateUTC
2013-04-07 00:02:00,34.0,33.0,-100.00,NE,36,2.0,8.0,97,0.00,,,0.00,0.000000,,2013-04-07 05:02:00,
2013-04-07 00:12:00,34.0,33.0,-100.00,North,359,6.0,12.0,97,0.00,,,0.00,0.000000,,2013-04-07 05:12:00,
2013-04-07 00:34:00,34.0,33.0,-100.00,North,359,6.0,12.0,97,0.00,,,0.00,0.000000,,2013-04-07 05:34:00,
2013-04-07 00:43:00,34.0,33.0,-100.00,North,359,6.0,12.0,97,0.00,,,0.00,0.000000,,2013-04-07 05:43:00,
2013-04-07 00:52:00,34.0,33.0,-100.00,North,359,6.0,12.0,97,0.00,,,0.00,0.000000,,2013-04-07 05:52:00,
2013-04-07 01:02:00,34.0,33.0,-100.00,North,359,6.0,12.0,97,0.00,,,0.00,0.000000,,2013-04-07 06:02:00,
2013-04-07 01:12:00,34.0,33.0,-100.00,North,353,4.0,8.0,97,0.00,,,0.00,0.000000,,2013-04-07 06:12:00,
2013-04-07 01:43:00,34.0,33.0,-100.00,North,353,4.0,8.0,97,0.00,,,0.00,0.000000,,2013-04-07 06:43:00,
2013-04-07 01:52:00,34.0,33.0,-100.00,North,353,4.0,8.0,97,0.00,,,0.00,0.000000,,2013-04-07 06:52:00,
2013-04-07 02:02:00,34.0,33.0,-100.00,North,353,4.0,8.0,97,0.00,,,0.00,0.000000,,2013-04-07 07:02:00,
2013-04-07 02:12:00,34.0,33.0,-100.00,NNW,334,5.0,10.0,97,0.00,,,0.00,0.000000,,2013-04-07 07:12:00,
2013-04-07 02:33:00,34.0,33.0,-100.00,NNW,334,5.0,10.0,97,0.00,,,0.00,0.000000,,2013-04-07 07:33:00,
2013-04-07 02:42:00,34.0,33.0,-100.00,NNW,334,5.0,10.0,97,0.00,,,0.00,0.000000,,2013-04-07 07:42:00,
2013-04-07 02:52:00,34.0,33.0,-100.00,NNW,334,5.0,10.0,97,0.00,,,0.00,0.000000,,2013-04-07 07:52:00,
2013-04-07 03:02:00,34.0,33.0,-100.00,NNW,334,5.0,10.0,97,0.00,,,0.00,0.000000,,2013-04-07 08:02:00,
2013-04-07 03:12:00,34.0,33.0,-100.00,NW,322,6.0,10.0,97,0.00,,,0.00,0.000000,,2013-04-07 08:12:00,
2013-04-07 03:33:00,34.0,33.0,-100.00,NW,322,6.0,10.0,97,0.00,,,0.00,0.000000,,2013-04-07 08:33:00,
2013-04-07 03:43:00,34.0,33.0,-100.00,NW,322,6.0,10.0,97,0.00,,,0.00,0.000000,,2013-04-07 08:43:00,
2013-04-07 03:53:00,34.0,33.0,-100.00,NW,322,6.0,10.0,97,0.00,,,0.00,0.000000,,2013-04-07 08:53:00,
2013-04-07 04:02:00,34.0,33.0,-100.00,NW,322,6.0,10.0,97,0.00,,,0.00,0.000000,,2013-04-07 09:02:00,
2013-04-07 04:12:00,34.0,32.0,-100.00,NW,317,7.0,14.0,94,0.00,,,0.00,0.000000,,2013-04-07 09:12:00,
2013-04-07 04:34:00,34.0,32.0,-100.00,NW,317,7.0,14.0,94,0.00,,,0.00,0.000000,,2013-04-07 09:34:00,
2013-04-07 04:44:00,34.0,32.0,-100.00,NW,317,7.0,14.0,94,0.00,,,0.00,0.000000,,2013-04-07 09:44:00,
2013-04-07 04:54:00,34.0,32.0,-100.00,NW,317,7.0,14.0,94,0.00,,,0.00,0.000000,,2013-04-07 09:54:00,
2013-04-07 05:04:00,34.0,32.0,-100.00,NW,317,7.0,14.0,94,0.00,,,0.00,0.000000,,2013-04-07 10:04:00,
2013-04-07 05:12:00,34.0,32.0,-100.00,NW,317,8.0,15.0,92,0.00,,,-99.99,0.000000,,2013-04-07 10:12:00,
2013-04-07 05:43:00,34.0,32.0,-100.00,NW,317,8.0,15.0,92,0.00,,,-99.99,0.000000,,2013-04-07 10:43:00,
2013-04-07 05:54:00,34.0,32.0,-100.00,NW,317,8.0,15.0,92,0.00,,,-99.99,0.000000,,2013-04-07 10:54:00,
2013-04-07 06:03:00,34.0,32.0,-100.00,NW,317,8.0,15.0,92,0.00,,,-99.99,0.000000,,2013-04-07 11:03:00,
2013-04-07 06:12:00,33.0,31.0,-100.00,NW,324,7.0,15.0,91,0.00,,,0.00,0.000000,,2013-04-07 11:12:00,
2013-04-07 06:33:00,33.0,31.0,-100.00,NW,324,7.0,15.0,91,0.00,,,0.00,0.000000,,2013-04-07 11:33:00,
2013-04-07 06:43:00,33.0,31.0,-100.00,NW,324,7.0,15.0,91,0.00,,,0.00,0.000000,,2013-04-07 11:43:00,
2013-04-07 06:53:00,33.0,31.0,-100.00,NW,324,7.0,15.0,91,0.00,,,0.00,0.000000,,2013-04-07 11:53:00,
2013-04-07 07:02:00,33.0,31.0,-100.00,NW,324,7.0,15.0,91,0.00,,,0.00,0.000000,,2013-04-07 12:02:00,
2013-04-07 07:12:00,33.0,31.0,-100.00,NNW,330,7.0,17.0,91,0.00,,,0.00,5.000000,,2013-04-07 12:12:00,
2013-04-07 07:35:00,33.0,31.0,-100.00,NNW,330,7.0,17.0,91,0.00,,,0.00,5.000000,,2013-04-07 12:35:00,
2013-04-07 07:43:00,33.0,31.0,-100.00,NNW,330,7.0,17.0,91,0.00,,,0.00,5.000000,,2013-04-07 12:43:00,
2013-04-07 07:54:00,33.0,31.0,-100.00,NNW,330,7.0,17.0,91,0.00,,,0.00,5.000000,,2013-04-07 12:54:00,
2013-04-07 08:03:00,33.0,31.0,-100.00,NNW,330,7.0,17.0,91,0.00,,,0.00,5.000000,,2013-04-07 13:03:00,
2013-04-07 08:12:00,34.0,31.0,-100.00,NNW,338,7.0,14.0,88,0.00,,,0.00,50.000000,,2013-04-07 13:12:00,
2013-04-07 08:33:00,34.0,31.0,-100.00,NNW,338,7.0,14.0,88,0.00,,,0.00,50.000000,,2013-04-07 13:33:00,
2013-04-07 08:43:00,34.0,31.0,-100.00,NNW,338,7.0,14.0,88,0.00,,,0.00,50.000000,,2013-04-07 13:43:00,
2013-04-07 08:53:00,34.0,31.0,-100.00,NNW,338,7.0,14.0,88,0.00,,,0.00,50.000000,,2013-04-07 13:53:00,
2013-04-07 09:02:00,34.0,31.0,-100.00,NNW,338,7.0,14.0,88,0.00,,,0.00,50.000000,,2013-04-07 14:02:00,
2013-04-07 09:12:00,35.0,30.0,-100.00,NNW,342,8.0,16.0,82,0.00,,,0.00,153.000000,,2013-04-07 14:12:00,
2013-04-07 09:33:00,35.0,30.0,-100.00,NNW,342,8.0,16.0,82,0.00,,,0.00,153.000000,,2013-04-07 14:33:00,
2013-04-07 09:44:00,35.0,30.0,-100.00,NNW,342,8.0,16.0,82,0.00,,,0.00,153.000000,,2013-04-07 14:44:00,
2013-04-07 09:54:00,35.0,30.0,-100.00,NNW,342,8.0,16.0,82,0.00,,,0.00,153.000000,,2013-04-07 14:54:00,
2013-04-07 10:03:00,35.0,30.0,-100.00,NNW,342,8.0,16.0,82,0.00,,,0.00,153.000000,,2013-04-07 15:03:00,
2013-04-07 10:12:00,35.0,29.0,-100.00,NNW,338,8.0,17.0,78,0.00,,,0.00,154.000000,,2013-04-07 15:12:00,
2013-04-07 10:35:00,35.0,29.0,-100.00,NNW,338,8.0,17.0,78,0.00,,,0.00,154.000000,,2013-04-07 15:35:00,
2013-04-07 10:45:00,35.0,29.0,-100.00,NNW,338,8.0,17.0,78,0.00,,,0.00,154.000000,,2013-04-07 15:45:00,
2013-04-07 10:55:00,35.0,29.0,-100.00,NNW,338,8.0,17.0,78,0.00,,,0.00,154.000000,,2013-04-07 15:55:00,
2013-04-07 11:04:00,35.0,29.0,-100.00,NNW,338,8.0,17.0,78,0.00,,,0.00,154.000000,,2013-04-07 16:04:00,
2013-04-07 11:12:00,36.0,28.0,-100.00,NW,316,9.0,16.0,71,0.00,,,0.00,213.000000,,2013-04-07 16:12:00,
2013-04-07 11:44:00,36.0,28.0,-100.00,NW,316,9.0,16.0,71,0.00,,,0.00,213.000000,,2013-04-07 16:44:00,
2013-04-07 11:54:00,36.0,28.0,-100.00,NW,316,9.0,16.0,71,0.00,,,0.00,213.000000,,2013-04-07 16:54:00,
2013-04-07 12:04:00,36.0,28.0,-100.00,NW,316,9.0,16.0,71,0.00,,,0.00,213.000000,,2013-04-07 17:04:00,
2013-04-07 12:12:00,37.0,27.0,-100.00,NW,324,7.0,16.0,68,0.00,,,0.00,280.000000,,2013-04-07 17:12:00,
2013-04-07 12:43:00,37.0,27.0,-100.00,NW,324,7.0,16.0,68,0.00,,,0.00,280.000000,,2013-04-07 17:43:00,
2013-04-07 13:02:00,37.0,27.0,-100.00,NW,324,7.0,16.0,68,0.00,,,0.00,280.000000,,2013-04-07 18:02:00,
2013-04-07 13:12:00,39.0,29.0,-100.00,NW,307,6.0,15.0,67,0.00,,,0.00,314.000000,,2013-04-07 18:12:00,
2013-04-07 13:44:00,39.0,29.0,-100.00,NW,307,6.0,15.0,67,0.00,,,0.00,314.000000,,2013-04-07 18:44:00,
2013-04-07 13:53:00,39.0,29.0,-100.00,NW,307,6.0,15.0,67,0.00,,,0.00,314.000000,,2013-04-07 18:53:00,
2013-04-07 14:02:00,39.0,29.0,-100.00,NW,307,6.0,15.0,67,0.00,,,0.00,314.000000,,2013-04-07 19:02:00,
2013-04-07 14:12:00,40.0,27.0,-100.00,NW,306,6.0,14.0,60,0.00,,,0.00,358.000000,,2013-04-07 19:12:00,
2013-04-07 14:43:00,40.0,27.0,-100.00,NW,306,6.0,14.0,60,0.00,,,0.00,358.000000,,2013-04-07 19:43:00,
2013-04-07 14:55:00,40.0,27.0,-100.00,NW,306,6.0,14.0,60,0.00,,,0.00,358.000000,,2013-04-07 19:55:00,
2013-04-07 15:03:00,40.0,27.0,-100.00,NW,306,6.0,14.0,60,0.00,,,0.00,358.000000,,2013-04-07 20:03:00,
2013-04-07 15:12:00,41.0,28.0,-100.00,NNW,329,6.0,12.0,59,0.00,,,0.00,347.000000,,2013-04-07 20:12:00,
2013-04-07 15:44:00,41.0,28.0,-100.00,NNW,329,6.0,12.0,59,0.00,,,0.00,347.000000,,2013-04-07 20:44:00,
2013-04-07 15:54:00,41.0,28.0,-100.00,NNW,329,6.0,12.0,59,0.00,,,0.00,347.000000,,2013-04-07 20:54:00,
2013-04-07 16:03:00,41.0,28.0,-100.00,NNW,329,6.0,12.0,59,0.00,,,0.00,347.000000,,2013-04-07 21:03:00,
2013-04-07 16:12:00,41.0,27.0,-100.00,WNW,283,4.0,10.0,58,0.00,,,0.00,283.000000,,2013-04-07 21:12:00,
2013-04-07 16:35:00,41.0,27.0,-100.00,WNW,283,4.0,10.0,58,0.00,,,0.00,283.000000,,2013-04-07 21:35:00,
2013-04-07 16:45:00,41.0,27.0,-100.00,WNW,283,4.0,10.0,58,0.00,,,0.00,283.000000,,2013-04-07 21:45:00,
2013-04-07 16:55:00,41.0,27.0,-100.00,WNW,283,4.0,10.0,58,0.00,,,0.00,283.000000,,2013-04-07 21:55:00,
2013-04-07 17:12:00,40.0,28.0,-100.00,NNW,332,5.0,8.0,61,0.00,,,0.00,177.000000,,2013-04-07 22:12:00,
2013-04-07 17:44:00,40.0,28.0,-100.00,NNW,332,5.0,8.0,61,0.00,,,0.00,177.000000,,2013-04-07 22:44:00,
2013-04-07 17:53:00,40.0,28.0,-100.00,NNW,332,5.0,8.0,61,0.00,,,0.00,177.000000,,2013-04-07 22:53:00,
2013-04-07 18:03:00,40.0,28.0,-100.00,NNW,332,5.0,8.0,61,0.00,,,0.00,177.000000,,2013-04-07 23:03:00,
2013-04-07 18:12:00,42.0,27.0,-100.00,North,4,4.0,8.0,56,0.00,,,0.00,252.000000,,2013-04-07 23:12:00,
2013-04-07 18:43:00,42.0,27.0,-100.00,North,4,4.0,8.0,56,0.00,,,0.00,252.000000,,2013-04-07 23:43:00,
2013-04-07 18:53:00,42.0,27.0,-100.00,North,4,4.0,8.0,56,0.00,,,0.00,252.000000,,2013-04-07 23:53:00,
2013-04-07 19:02:00,42.0,27.0,-100.00,North,4,4.0,8.0,56,0.00,,,0.00,252.000000,,2013-04-08 00:02:00,
2013-04-07 19:12:00,37.0,27.0,-100.00,ENE,60,3.0,7.0,66,0.00,,,-99.99,100.000000,,2013-04-08 00:12:00,
2013-04-07 19:33:00,37.0,27.0,-100.00,ENE,60,3.0,7.0,66,0.00,,,-99.99,100.000000,,2013-04-08 00:33:00,
2013-04-07 19:43:00,37.0,27.0,-100.00,ENE,60,3.0,7.0,66,0.00,,,-99.99,100.000000,,2013-04-08 00:43:00,
2013-04-07 19:53:00,37.0,27.0,-100.00,ENE,60,3.0,7.0,66,0.00,,,-99.99,100.000000,,2013-04-08 00:53:00,
2013-04-07 20:03:00,37.0,27.0,-100.00,ENE,60,3.0,7.0,66,0.00,,,-99.99,100.000000,,2013-04-08 01:03:00,
2013-04-07 20:12:00,33.0,27.0,-100.00,East,98,2.0,4.0,77,0.00,,,0.00,4.000000,,2013-04-08 01:12:00,
2013-04-07 20:45:00,33.0,27.0,-100.00,East,98,2.0,4.0,77,0.00,,,0.00,4.000000,,2013-04-08 01:45:00,
2013-04-07 20:55:00,33.0,27.0,-100.00,East,98,2.0,4.0,77,0.00,,,0.00,4.000000,,2013-04-08 01:55:00,
2013-04-07 21:03:00,33.0,27.0,-100.00,East,98,2.0,4.0,77,0.00,,,0.00,4.000000,,2013-04-08 02:03:00,
2013-04-07 21:48:00,31.0,26.0,-100.00,South,186,2.0,4.0,82,0.00,,,0.00,0.000000,,2013-04-08 02:48:00,
2013-04-07 21:54:00,31.0,26.0,-100.00,South,186,2.0,4.0,82,0.00,,,0.00,0.000000,,2013-04-08 02:54:00,
2013-04-07 22:08:00,31.0,26.0,-100.00,South,186,2.0,4.0,82,0.00,,,0.00,0.000000,,2013-04-08 03:08:00,
2013-04-07 22:12:00,29.0,26.0,-100.00,East,95,2.0,4.0,88,0.00,,,0.00,0.000000,,2013-04-08 03:12:00,
2013-04-07 22:57:00,29.0,26.0,-100.00,East,95,2.0,4.0,88,0.00,,,0.00,0.000000,,2013-04-08 03:57:00,
2013-04-07 23:03:00,29.0,26.0,-100.00,East,95,2.0,4.0,88,0.00,,,0.00,0.000000,,2013-04-08 04:03:00,
2013-04-07 23:12:00,29.0,27.0,-100.00,SSE,164,1.0,4.0,91,0.00,,,0.00,0.000000,,2013-04-08 04:12:00,
2013-04-07 23:34:00,29.0,27.0,-100.00,SSE,164,1.0,4.0,91,0.00,,,0.00,0.000000,,2013-04-08 04:34:00,
2013-04-07 23:44:00,29.0,27.0,-100.00,SSE,164,1.0,4.0,91,0.00,,,0.00,0.000000,,2013-04-08 04:44:00,
2013-04-07 23:53:00,29.0,27.0,-100.00,SSE,164,1.0,4.0,91,0.00,,,0.00,0.000000,,2013-04-08 04:53:00,